Ord, NE

12:48 PM CDT on May 26, 2017 (GMT -0500)
Sharp

Weather History for KODX - October, 2014

Change the Weather History Date:

Friday, October 31, 2014

  Actual Average Record
Temperature  
Mean Temperature 31 °F 44 °F  
Max Temperature 43 °F 56 °F 77 °F (2016)
Min Temperature 19 °F 31 °F 12 °F (2002)
Degree Days  
Heating Degree Days 34 21  
Month to date heating degree days 414 483  
Since 1 July heating degree days 570 620  
Cooling Degree Days 0 0  
Month to date cooling degree days 0 7  
Year to date cooling degree days 692 845  
Moisture  
Dew Point 19 °F    
Average Humidity 58    
Maximum Humidity 89    
Minimum Humidity 27    
Precipitation  
Precipitation 0.00 in 0.04 in 1.75 in (1920)
Month to date precipitation 1.14 1.93  
Year to date precipitation 20.46 23.28  
Sea Level Pressure  
Sea Level Pressure 30.52 in    
Wind  
Wind Speed 8 mph (ENE)    
Max Wind Speed 18 mph    
Max Gust Speed 23 mph    
Visibility 10 miles    
Events      
T = Trace of Precipitation, MM = Missing Value Source: NWS Daily Summary

Daily Weather History Graph

Daily Weather History Graph

Search for Another Location

Airport or City:

Trip Planner

Search our weather history database for the weather conditions in past years. The results will help you decide how hot, cold, wet, or windy it might be!

Date:

Astronomy

Oct. 31, 2014 Rise Set
Actual Time 8:06 AM CDT 6:31 PM CDT
Civil Twilight 7:37 AM CDT 7:00 PM CDT
Nautical Twilight 7:05 AM CDT 7:33 PM CDT
Astronomical Twilight 6:32 AM CDT 8:05 PM CDT
Moon 2:51 PM CDT (10/31) 12:51 AM CDT (10/31)
Length of Visible Light 11h 22m
Length of Day
10h 25m
First Quarter, 57% of the Moon is Illuminated
Oct 31
First Quarter
Nov 6
Full
Nov 14
Last Quarter
Nov 22
New
Nov 29
First Quarter

Hourly Weather History & Observations

Time (CDT) Temp. Windchill Dew Point Humidity Pressure Visibility Wind Dir Wind Speed Gust Speed Precip Events Conditions
12:53 AM 34.0 °F 26.6 °F 30.0 °F 85% 30.49 in 10.0 mi North 9.2 mph - N/A   Overcast
1:30 AM 35.1 °F 26.9 °F 28.9 °F 78% 30.48 in 10.0 mi North 11.5 mph - N/A   Overcast
1:53 AM 34.0 °F 25.0 °F 27.0 °F 75% 30.52 in 10.0 mi North 12.7 mph - N/A   Overcast
2:53 AM 33.1 °F 23.0 °F 26.1 °F 75% 30.53 in 10.0 mi NNE 15.0 mph 19.6 mph N/A   Overcast
3:53 AM 30.9 °F 22.8 °F 24.1 °F 76% 30.56 in 10.0 mi NNE 9.2 mph - N/A   Overcast
4:53 AM 30.0 °F 21.1 °F 21.9 °F 72% 30.56 in 10.0 mi North 10.4 mph - N/A   Overcast
5:53 AM 30.0 °F 22.4 °F 21.9 °F 72% 30.59 in 10.0 mi NNE 8.1 mph - N/A   Overcast
6:53 AM 27.0 °F 19.5 °F 19.9 °F 75% 30.59 in 10.0 mi NE 6.9 mph - N/A   Mostly Cloudy
7:04 AM 26.1 °F 19.4 °F 19.9 °F 78% 30.53 in 10.0 mi NE 5.8 mph - N/A   Scattered Clouds
7:53 AM 23.0 °F 18.4 °F 19.0 °F 85% 30.61 in 10.0 mi NNW 3.5 mph - N/A   Clear
8:53 AM 21.9 °F 14.5 °F 18.0 °F 85% 30.63 in 10.0 mi NW 5.8 mph - N/A   Clear
9:53 AM 28.9 °F 23.9 °F 21.0 °F 72% 30.63 in 10.0 mi NNE 4.6 mph - N/A   Clear
10:53 AM 32.0 °F 26.4 °F 19.9 °F 61% 30.64 in 10.0 mi ENE 5.8 mph - N/A   Clear
11:53 AM 33.1 °F - 19.0 °F 56% 30.61 in 10.0 mi Calm Calm - N/A   Clear
12:53 PM 36.0 °F 32.1 °F 18.0 °F 48% 30.59 in 10.0 mi Variable 4.6 mph - N/A   Clear
1:53 PM 39.0 °F - 16.0 °F 39% 30.56 in 10.0 mi Calm Calm - N/A   Clear
2:53 PM 41.0 °F - 12.9 °F 32% 30.51 in 10.0 mi North - - N/A   Clear
3:53 PM 42.1 °F 36.1 °F 12.0 °F 29% 30.48 in 10.0 mi SSE 10.4 mph - N/A   Clear
4:53 PM 42.1 °F 36.6 °F 10.0 °F 27% 30.46 in 10.0 mi SE 9.2 mph - N/A   Clear
5:53 PM 41.0 °F 34.7 °F 12.9 °F 32% 30.45 in 10.0 mi SSE 10.4 mph - N/A   Clear
6:53 PM 37.0 °F 31.6 °F 14.0 °F 39% 30.45 in 10.0 mi SSE 6.9 mph - N/A   Clear
7:53 PM 35.1 °F 28.6 °F 14.0 °F 42% 30.44 in 10.0 mi SSE 8.1 mph - N/A   Clear
8:53 PM 33.1 °F 26.1 °F 15.1 °F 48% 30.44 in 10.0 mi SE 8.1 mph - N/A   Clear
9:53 PM 32.0 °F 23.6 °F 14.0 °F 48% 30.43 in 10.0 mi SSE 10.4 mph - N/A   Clear
10:53 PM 30.9 °F 23.5 °F 14.0 °F 50% 30.43 in 10.0 mi SSE 8.1 mph - N/A   Clear
11:53 PM 30.0 °F 21.7 °F 15.1 °F 54% 30.41 in 10.0 mi SE 9.2 mph - N/A   Clear